FENGYUN 1C DEB, 46439

Orbit data source: Space-Track

FENGYUN 1C DEB, 46439 is space debris in SSO originally from a launch on Mon, 10 May 1999 UTC launched from the Taiyaun Space Center, China (TSC). Fengyun 1C debris stems from the Chinese weather satellite Fengyun-1C, which was intentionally destroyed by a Chinese anti-satellite missile in 2007. This event dramatically increased the amount of space debris, with thousands of trackable fragments posing hazards to satellites and human spaceflight. The Fengyun 1C debris cloud has become a focal point in discussions about space sustainability and the need for international regulations to prevent the creation of new debris.

Loading next visibility...
Identifier
46439, 1999-025EYU
Orbit
SSO
Country
Flag of CNCN / PRC
Related business
Manufacturer
Unknown
Mission
Spacecraft
Bus & Motor
Unknown
Mass
Unknown
Launch date (UTC)
1999-05-10 (26 years ago)
Launch vehicle
Unknown
Launch site
Taiyaun Space Center, China (TSC)
Object type
Payload
Rocket body
Debris
Shape & HBR
Unknown shape, 0.1 m
Radar Cross Section
Small (<0.1 m²)

Expand to show TLE details & history
Last TLE update: 2 months ago

TLE from 2 months ago
0 FENGYUN 1C DEB
1 46439U 99025EYU 25262.22031606  .00000648  00000-0  29075-3 0  9992
2 46439  98.5200 251.9719 0119935 293.4456  65.4151 14.22013532591636
Epoch: 2025-09-19T05:17Z
TLE epoch observation values (Epoch: 2025-09-19T05:17:15.307Z)
Latitude
-0°
Longitude
174.28744°
Altitude
786.42 km
Speed
7.479 km/s
True Right ascension
16h 47m 53s
True Declination
0° 00' 00"
Sunlit
Object was in daylight at epoch
Visualization orbit readout
Latitude
Unknown
Longitude
Unknown
Altitude
Unknown
Speed
Unknown
Apparent Right ascension
Unknown
Apparent Declination
Unknown
Sunlit
N/A
Visualization observer readout
Local Sidereal Time
21:48:25
Azimuth
Unknown
Elevation
Unknown
Doppler factor
Unknown
Orbital elements
Apogee altitude
901.977 km
Perigee altitude
729.418 km
Semi-major axis
7,193.835 km
Eccentricity
0.01199
Inclination
98.52°
RAAN
251.9719°
Arg. of periapsis
293.4456°
True anomaly
66.6726°
Mean anomaly
65.4151°
Eccentric anomaly
66.04308°
Mean motion
3.55715 °/min
Orbital period
101.2 mins
BSTAR
0.00029075
Loading maneuver chart data...
Computing Atmospheric mass density...

Documentation

Showing up to 5 results
|